Location: Enkingen
(48.8279°N, 10.5728°E)
Time: 09:38:57
(UTC+00:00)

Daily predictions for brighter satellites

Satellite Brightness Start Highest point End
(mag) Time Altitude Azimuth Time Altitude Azimuth Time Altitude Azimuth
Meteor 2-4 Rocket 3.6 19:42:39 10° S 19:48:00 81° E 19:53:23 10° NNE
NOSS 3-1 (A) 4.5 19:43:44 10° WSW 19:49:16 52° NW 19:55:49 10° NE
NOSS 2-2 (E) 4.5 19:46:56 10° SSE 19:49:39 21° ESE 19:52:35 10° ENE
STARLINK-1125 4.2 19:46:03 10° WNW 19:50:02 46° SW 19:54:00 10° SE
EXPRESS MD2 4.0 19:47:52 10° SSW 19:50:31 29° SE 19:54:53 10° ENE
STARLINK-1254 4.5 19:47:15 10° W 19:51:20 54° NNW 19:55:26 10° ENE
STARLINK-1098 3.8 19:48:14 10° WNW 19:52:24 71° NNE 19:56:32 10° ESE
Cosmos 1833 Rocket 3.4 19:47:16 10° NW 19:52:44 53° WSW 19:58:09 10° S
Cosmos 2297 4.3 19:49:27 10° S 19:54:36 37° ESE 19:59:48 10° NE
STARLINK-1109 4.3 19:51:03 10° WNW 19:54:59 43° SW 19:58:56 10° SE
Cosmos 1943 Rocket 3.7 19:51:48 10° SE 19:55:19 17° E 19:58:51 10° ENE
STARLINK-1123 3.8 19:53:12 10° WNW 19:57:21 75° NNE 20:01:31 10° ESE
STARLINK-1246 3.6 19:54:20 10° WSW 19:58:28 81° SSE 20:02:38 10° ENE
Cosmos 2082 Rocket 2.4 19:53:44 10° NNW 19:59:28 74° WSW 20:05:08 10° SSE
STARLINK-1091 4.4 19:56:02 10° WNW 19:59:55 40° SW 20:03:48 10° SSE
IGS 5A 3.9 19:56:06 10° SE 20:00:06 50° ENE 20:04:09 10° N
Cosmos 1420 Rocket 4.2 19:55:45 10° SSW 20:00:56 78° WNW 20:06:10 10° NNE
Cosmos 1452 Rocket 3.5 19:55:56 10° SSW 20:01:12 78° ESE 20:06:31 10° NNE
Cosmos 332 Rocket 3.9 19:56:40 10° S 20:01:30 62° ESE 20:06:20 10° NNE
BREEZE-M DEB 3.9 19:59:52 10° S 20:01:35 17° SE 20:04:09 10° E
Intercosmos 24 3.7 19:58:42 10° N 20:02:17 90° NW 20:06:06 10° S
STARLINK-1097 3.7 19:58:13 10° WNW 20:02:23 78° NNE 20:06:32 10° ESE
Landsat 7 4.1 19:58:27 10° SSE 20:03:07 58° ENE 20:07:48 10° N
STARLINK-1224 3.6 19:59:18 10° WSW 20:03:26 85° SSE 20:07:36 10° ENE
STARLINK-1099 3.7 20:03:11 10° WNW 20:07:22 82° NNE 20:11:30 10° ESE
Cosmos 1461 3.0 20:03:47 10° SSW 20:07:48 53° ESE 20:12:04 10° NE
STARLINK-1225 3.6 20:04:17 10° WSW 20:08:26 89° SSE 20:12:36 10° ENE
Okean 3 4.0 20:05:44 10° SSW 20:09:59 64° W 20:14:18 10° N
SAR-Lupe-2 4.0 20:07:22 10° NNE 20:10:51 43° E 20:14:17 10° S
Cosmos 2369 Rocket 3.7 20:07:41 10° SE 20:11:13 17° E 20:14:45 10° ENE
STARLINK-1104 3.7 20:08:09 10° WNW 20:12:19 86° NNE 20:16:29 10° ESE
STARLINK-1230 3.7 20:09:15 10° WSW 20:13:24 86° NNW 20:17:34 10° ENE
STARLINK-1212 4.4 20:10:36 10° WNW 20:13:31 36° N 20:16:27 10° ENE
STARLINK-1105 4.4 20:11:04 10° WNW 20:13:59 36° N 20:16:54 10° ENE
NOSS 2-2 (C) 4.0 20:11:02 10° S 20:14:07 28° ESE 20:17:27 10° ENE
STARLINK-1247 4.4 20:11:57 10° WNW 20:14:53 36° N 20:17:49 10° ENE
STARLINK-1227 4.4 20:12:26 10° WNW 20:15:22 36° N 20:18:17 10° ENE
STARLINK-1226 4.4 20:13:18 10° WNW 20:16:14 36° N 20:19:10 10° ENE
SL-4 R/B 3.8 20:15:16 10° WNW 20:17:07 15° WSW 20:18:53 10° SSW
STARLINK-1215 4.4 20:14:12 10° WNW 20:17:08 36° N 20:20:05 10° ENE
STARLINK-1144 3.6 20:13:09 10° WNW 20:17:18 90° W 20:21:27 10° ESE
Cosmos 2221 Rocket 4.3 20:13:25 10° SSW 20:17:54 59° WNW 20:22:26 10° N
ATLAS 2AS CENTAUR R/B 4.4 20:13:27 10° SE 20:18:16 18° ESE 20:23:06 10° ENE
STARLINK-1243 3.7 20:14:15 10° WSW 20:18:24 82° NNW 20:22:34 10° ENE
STARLINK-1217 4.4 20:16:01 10° WNW 20:18:58 37° N 20:21:54 10° ENE
SPOT 5 3.6 20:14:18 10° SE 20:19:15 47° ENE 20:24:23 10° N
NOSS 3-2 (A) 4.3 20:12:14 10° NW 20:19:29 64° NE 20:27:44 10° ESE
STARLINK-1229 4.3 20:16:56 10° WNW 20:19:53 37° N 20:22:49 10° ENE
STARLINK-1270 4.3 20:17:49 10° WNW 20:20:47 37° N 20:23:43 10° ENE
NOSS 8 (F) 4.1 20:18:11 10° SW 20:21:23 87° SE 20:24:26 10° NE
Meteor 1-13 Rocket 4.4 20:15:54 10° SSW 20:21:32 83° WNW 20:27:21 10° N
STARLINK-1103 3.6 20:18:07 10° WNW 20:22:16 85° SSW 20:26:13 11° ESE
STARLINK-1189 4.3 20:19:37 10° WNW 20:22:34 37° N 20:25:31 10° ENE
STARLINK-1236 3.8 20:19:13 10° WSW 20:23:22 78° NNW 20:27:32 10° ENE
STARLINK-1188 4.3 20:20:33 10° WNW 20:23:29 37° N 20:26:27 10° ENE
ERS-1 Rocket 3.2 20:19:40 11° SSE 20:24:25 57° ENE 20:29:22 10° N
STARLINK-1187 4.3 20:21:39 10° WNW 20:24:35 38° N 20:27:31 10° ENE
STARLINK-1191 4.3 20:22:59 10° WNW 20:25:56 37° N 20:28:51 10° ENE
STARLINK-1221 4.3 20:23:57 10° WNW 20:26:53 37° N 20:29:49 10° ENE
STARLINK-1101 3.6 20:23:06 10° WNW 20:27:15 81° SSW 20:31:00 12° ESE
STARLINK-1222 4.3 20:24:48 10° WNW 20:27:44 37° N 20:30:40 10° ENE
STARLINK-1214 4.3 20:25:42 10° WNW 20:28:39 37° N 20:31:35 10° ENE
Cosmos 1066 Rocket 4.2 20:23:52 10° S 20:29:11 63° E 20:34:29 10° NNE
USA 245 2.8 20:27:56 10° S 20:30:50 59° WSW 20:33:21 10° NNW
USA 238 DEB 4.1 20:24:17 10° NW 20:31:27 69° NE 20:38:25 12° SE
USA 238 4.1 20:24:23 10° NW 20:31:33 69° NE 20:38:32 12° SE
STARLINK-1102 3.6 20:28:05 10° WNW 20:32:14 77° SSW 20:35:48 14° SE
STARLINK-1228 4.2 20:29:46 10° WNW 20:33:09 45° N 20:36:32 10° E
STARLINK-1269 3.9 20:29:13 10° WSW 20:33:21 72° NNW 20:37:30 10° ENE
Okean 1 Rocket 3.1 20:29:21 10° N 20:33:51 81° E 20:37:54 12° SSE
Cosmos 1805 3.6 20:30:17 10° N 20:34:07 49° ENE 20:37:07 15° SSE
Cosmos 2278 Rocket 3.6 20:28:58 10° WSW 20:34:20 42° NW 20:39:45 10° NNE
TSX-5 4.3 20:28:51 10° SSW 20:34:25 87° ESE 20:38:42 10° NNE
Resurs 01 Rocket 3.3 20:30:33 10° SSW 20:34:30 31° W 20:38:29 10° NNW
Nadezhda 4 Rocket 4.0 20:29:34 10° S 20:35:38 68° E 20:41:43 10° NNE
STARLINK-1235 4.1 20:33:24 10° WNW 20:36:31 42° N 20:39:38 10° E
STARLINK-1111 3.6 20:33:04 10° WNW 20:37:12 72° SSW 20:40:34 15° SE
STARLINK-1200 4.0 20:34:11 10° WSW 20:38:19 69° NNW 20:42:28 10° ENE
Cosmos 1455 Rocket 4.2 20:35:31 10° N 20:39:22 29° ENE 20:42:18 15° SE
STARLINK-1073 3.7 20:38:03 10° WNW 20:42:11 68° SSW 20:45:22 16° SE
SL-8 R/B 3.9 20:37:37 10° W 20:42:20 58° SSW 20:46:16 15° SE
STARLINK-1192 4.1 20:39:12 10° WSW 20:43:19 66° NNW 20:47:28 10° ENE
ATLAS 3B CENTAUR R/B 4.3 20:38:34 10° SW 20:47:00 19° SSW 20:50:57 14° SSE
STARLINK-1121 3.7 20:43:02 10° WNW 20:47:09 63° SSW 20:50:08 18° SE
SL-4 R/B 3.4 20:44:02 10° S 20:47:48 23° SE 20:51:37 10° E
Terra 2.1 20:44:22 16° SE 20:48:05 58° ENE 20:52:46 10° N
Cosmos 1110 Rocket 3.9 20:42:57 10° SSW 20:48:08 79° ESE 20:53:19 10° NNE
STARLINK-1244 4.1 20:44:11 10° W 20:48:19 63° NNW 20:52:26 10° ENE
Spot 2 Rocket 4.2 20:44:32 10° S 20:49:24 49° W 20:54:19 10° NNW
SPOT 1/Viking Rocket 3.8 20:45:17 11° S 20:50:14 67° WSW 20:55:23 10° NNW
Abrixas rocket 3.1 20:48:06 10° W 20:50:43 29° SSW 20:51:50 22° SSE
Cosmos 1842 4.2 20:48:52 18° SE 20:51:01 31° E 20:54:29 10° NNE
CARTOSAT-1 3.5 20:47:49 15° SSE 20:51:21 89° WNW 20:55:42 10° NNW
STARLINK-1106 3.8 20:48:03 10° WNW 20:52:08 59° SSW 20:54:56 19° SE
NOSS 8 (H) 4.3 20:49:26 10° SW 20:52:33 76° NW 20:55:38 10° NE
STARLINK-1138 4.2 20:49:12 10° W 20:53:18 61° NNW 20:57:25 10° ENE
STARLINK-1234 3.8 20:51:10 10° WNW 20:54:23 49° NNE 20:57:36 10° E
STARLINK-1112 3.9 20:53:00 10° WNW 20:57:04 55° SSW 20:59:41 20° SE
STARLINK-1143 4.3 20:54:11 10° W 20:58:17 59° NNW 21:02:23 10° ENE
STARLINK-1209 3.7 20:57:09 10° WNW 21:00:24 53° NNE 21:03:27 11° E
STARLINK-1128 3.9 20:57:59 10° WNW 21:02:01 51° SW 21:04:28 22° SSE
STARLINK-1241 4.3 20:59:13 10° W 21:03:19 57° NNW 21:07:24 10° ENE
SWAS 4.4 20:59:37 10° NNW 21:03:57 84° ENE 21:06:45 22° SSE
Cosmos 1331 Rocket 4.0 20:59:46 10° SSW 21:04:55 85° WNW 21:10:10 10° NNE
Aureole 2 Rocket 3.7 21:02:54 10° SW 21:05:46 34° WNW 21:08:31 10° N
STARLINK-1113 4.0 21:03:00 10° WNW 21:07:00 48° SW 21:09:15 23° SSE
Cosmos 1733 3.1 21:03:25 10° N 21:07:15 79° E 21:09:32 23° SSE
STARLINK-1239 4.4 21:04:13 10° W 21:08:18 55° NNW 21:12:23 10° ENE
COSMOS 2455 4.3 21:09:45 16° SE 21:11:33 18° ESE 21:15:31 10° ENE
STARLINK-1119 4.1 21:08:01 10° WNW 21:11:59 44° SW 21:14:04 24° SSE
Cosmos 1378 3.4 21:09:41 13° SSW 21:12:56 68° W 21:16:39 10° N
STARLINK-1240 4.4 21:09:12 10° W 21:13:16 53° NNW 21:17:21 10° ENE
Cosmos 1486 Rocket 4.2 21:09:25 10° NNW 21:14:44 66° ENE 21:18:13 21° SE
Cosmos 1302 Rocket 4.0 21:10:13 12° S 21:15:02 66° ESE 21:20:18 10° NNE
USA 215 4.0 21:09:05 10° E 21:15:24 53° NNE 21:21:43 10° WNW
Cosmos 1271 Rocket 4.0 21:14:22 22° SE 21:15:44 27° E 21:19:04 10° NNE
Cosmos 1544 Rocket 4.0 21:12:03 10° N 21:16:16 48° ENE 21:18:39 23° SE
Cosmos 1242 Rocket 3.3 21:15:26 26° SE 21:16:52 37° E 21:20:17 10° NNE
STARLINK-1114 4.2 21:13:00 10° WNW 21:16:54 41° SW 21:18:49 25° SSE
MTI 3.7 21:14:31 10° NNE 21:17:38 60° ESE 21:18:58 30° S
STARLINK-1216 4.5 21:14:12 10° W 21:18:16 52° NNW 21:22:20 10° ENE
Lacrosse 5 4.1 21:17:05 10° W 21:18:54 12° WSW 21:20:42 10° SW
STARLINK-60 3.8 21:20:10 30° SE 21:20:10 30° SE 21:22:35 10° ENE
Cosmos 1092 Rocket 4.0 21:15:30 12° S 21:21:10 89° WNW 21:27:22 10° N
STARLINK-1130 (DARKSAT) 4.3 21:18:00 10° WNW 21:21:52 38° SW 21:23:37 26° S
NOSS 2-2 (D) 3.5 21:18:49 10° SW 21:22:24 69° NW 21:26:30 10° NE
CENTAUR R/B 3.3 21:16:06 10° NW 21:24:04 81° NE 21:31:08 17° SE
Cosmos 1707 3.9 21:24:35 23° ESE 21:25:49 28° E 21:29:11 10° NNE
STARLINK-1084 4.4 21:23:01 10° WNW 21:26:50 36° SW 21:28:24 26° S
ATLAS 3B R/B 3.4 21:20:41 10° NW 21:27:14 49° NE 21:33:56 10° ESE
SL-27 R/B 2.4 21:24:18 10° NNW 21:27:54 80° WSW 21:29:28 31° SSE
NOSS 3-2 (C) 4.1 21:21:49 10° NW 21:29:18 89° SW 21:35:37 20° SE
Cosmos 1766 4.1 21:26:22 10° NNW 21:30:11 44° W 21:32:47 18° SSW
Cosmos 1726 3.7 21:28:16 10° NNE 21:31:20 24° ENE 21:32:50 18° ESE
ALOS 2 4.4 21:30:24 13° ESE 21:33:02 22° ENE 21:36:24 10° NNE
Cosmos 1867 3.9 21:28:48 10° NW 21:34:14 61° NE 21:38:07 19° ESE
COSMOS 2487 4.1 21:32:31 10° N 21:35:26 24° ENE 21:37:03 18° E
STARLINK-1231 4.5 21:32:18 10° WNW 21:36:21 50° N 21:40:24 10° E
Cosmos 1943 Rocket 2.2 21:32:46 10° SSW 21:38:19 82° WNW 21:43:58 10° NNE
Cosmos 1992 Rocket 4.5 21:36:08 25° SSE 21:38:38 43° ESE 21:43:33 10° NE
NOSS 3-4 (A) 3.8 21:36:32 22° S 21:39:52 40° ESE 21:45:41 10° NE
NOSS 3-4 (C) 3.9 21:36:40 22° S 21:39:58 40° ESE 21:45:47 10° NE
STARLINK-1232 4.4 21:37:19 10° WNW 21:41:22 51° N 21:45:26 10° E
Cosmos 1428 Rocket 4.5 21:36:33 18° S 21:41:27 89° E 21:47:46 10° N
SeaSat 1 3.2 21:38:17 10° NE 21:42:49 35° ESE 21:44:34 27° SSE
EO 1 Del DPAF 3.8 21:39:50 10° NNE 21:43:26 40° E 21:44:29 32° SE
STARLINK-1208 4.4 21:42:17 10° WNW 21:46:21 52° NNE 21:50:25 10° E
Cosmos 1975 Rocket 3.6 21:44:36 16° SSW 21:47:58 56° WNW 21:52:20 10° N
STARLINK-1212 2.9 21:46:30 10° WNW 21:49:37 77° NNE 21:50:47 35° ESE
STARLINK-1105 2.9 21:46:58 10° WNW 21:50:05 77° NNE 21:51:13 36° ESE
STARLINK-1247 2.9 21:47:51 10° WNW 21:50:59 78° NNE 21:52:06 36° ESE
Meteor 2-10 4.2 21:46:10 10° N 21:51:09 57° ENE 21:53:43 27° SE
STARLINK-1271 4.3 21:47:18 10° WNW 21:51:23 54° NNE 21:55:27 10° E
STARLINK-1227 2.9 21:48:20 10° WNW 21:51:27 79° NNE 21:52:32 37° ESE
Cosmos 292 Rocket 3.7 21:48:20 21° SSW 21:51:35 83° ESE 21:56:28 10° NNE
BREEZE-M DEB (TANK) 3.4 21:38:34 10° WSW 21:51:56 83° SSE 21:55:33 10° E
STARLINK-1226 2.9 21:49:12 10° WNW 21:52:19 80° NNE 21:53:23 38° ESE
BREEZE-M DEB (TANK) 2.8 21:48:52 10° W 21:52:43 86° N 21:56:40 10° E
STARLINK-1215 2.8 21:50:06 10° WNW 21:53:14 81° NNE 21:54:16 39° ESE
RESURS DK-1 4.5 21:53:57 13° E 21:53:57 13° E 21:55:44 10° ENE
Cosmos 2369 Rocket 2.2 21:49:04 11° SSW 21:54:30 85° WNW 22:00:12 10° NNE
S3M 4.1 21:48:22 10° N 21:54:32 69° ENE 21:58:11 26° SSE
STARLINK-1217 2.8 21:51:54 10° WNW 21:55:03 83° NNE 21:56:00 41° ESE
STARLINK-1229 2.8 21:52:49 10° WNW 21:55:57 84° NNE 21:56:54 42° ESE
STARLINK-1154 4.3 21:52:17 10° WNW 21:56:22 55° NNE 22:00:27 10° E
STARLINK-1270 2.8 21:53:42 10° WNW 21:56:51 85° NNE 21:57:45 43° ESE
Aureole 3 Rocket 4.4 21:52:03 10° NNW 21:58:13 79° W 22:03:53 22° S
STARLINK-1189 2.8 21:55:30 10° WNW 21:58:39 87° NNE 21:59:29 45° ESE
STARLINK-1188 2.8 21:56:25 10° WNW 21:59:33 88° NNE 22:00:22 46° ESE
ATLAS CENTAUR R/B 2.1 21:59:35 34° SE 22:00:21 36° ESE 22:04:12 10° NE
STARLINK-1187 2.7 21:57:31 10° WNW 22:00:38 84° SSW 22:01:14 54° SE
Cosmos 1340 Rocket 3.4 21:57:02 10° N 22:01:00 48° ENE 22:02:31 31° SE
STARLINK-1197 4.2 21:57:15 10° WNW 22:01:21 57° NNE 22:05:26 10° E
STARLINK-1191 2.7 21:58:52 10° WNW 22:01:58 89° SW 22:02:39 52° ESE
Aureole 3 4.0 21:59:57 10° N 22:02:49 28° ENE 22:03:24 26° E
STARLINK-1221 2.7 21:59:49 10° WNW 22:02:55 88° SW 22:03:34 53° ESE
STARLINK-1222 2.7 22:00:40 10° WNW 22:03:46 87° SSW 22:04:23 54° ESE
Thor Agena Rocket 3.6 21:58:58 10° NNE 22:04:18 75° ESE 22:07:12 27° S
STARLINK-1214 2.7 22:01:33 10° WNW 22:04:40 86° SSW 22:05:15 56° ESE
NOSS 7 (A) 4.4 22:04:00 48° SSW 22:04:44 78° SE 22:07:39 10° NE
Cosmos 1025 Rocket 2.9 22:02:58 34° S 22:04:47 78° E 22:09:06 10° NNE
Cosmos 2026 Rocket 4.5 22:00:23 14° SSW 22:05:43 59° WNW 22:12:02 10° N
EXPRESS MD2 4.3 22:01:56 10° W 22:06:02 83° N 22:14:46 10° E
STARLINK-1198 4.1 22:02:14 10° WNW 22:06:20 59° NNE 22:10:26 10° E
ATLAS 2AS CENTAUR R/B 3.0 22:00:30 12° SSW 22:08:01 69° SE 22:15:53 10° NE
Cosmos 1553 Rocket 4.1 22:01:45 10° NNW 22:08:02 74° W 22:11:43 26° S
Cosmos 1656 Rocket 3.7 22:04:50 25° S 22:08:08 67° ESE 22:13:40 10° NNE
BREEZE M DEB (TANK) 1.7 22:05:14 10° W 22:08:15 79° N 22:08:33 61° ENE
Cosmos 1953 2.3 22:05:22 10° N 22:09:22 70° E 22:10:41 40° SSE
BREEZE-M DEB (TANK) 4.1 21:57:33 10° WNW 22:09:54 59° SW 22:11:56 31° SSE
Cosmos 1470 3.3 22:06:38 10° NNW 22:10:24 50° W 22:11:51 31° SSW
STARLINK-1228 3.1 22:07:02 10° WNW 22:10:30 65° SSW 22:11:08 52° SSE
STARLINK-1199 4.1 22:07:14 10° WNW 22:11:21 61° NNE 22:15:21 11° E
APEX 4.3 22:06:47 13° SSW 22:12:43 83° WNW 22:17:59 10° NNE
STARLINK-1235 2.9 22:09:45 10° WNW 22:12:58 63° SSW 22:13:12 60° S
Cosmos 2292 Rocket 3.7 22:13:24 37° ESE 22:13:59 40° E 22:17:02 10° NNE
Cosmos 968 Rocket 3.9 22:10:11 10° NNW 22:15:11 52° WSW 22:17:31 29° SSW
STARLINK-1210 4.0 22:12:12 10° WNW 22:16:20 64° NNE 22:20:07 12° E
Cosmos 1455 Rocket 4.4 22:13:22 10° NNW 22:17:09 30° W 22:19:25 19° SW
Cosmos 1655 Rocket 4.0 22:15:01 27° S 22:18:41 84° E 22:24:59 10° N
SL-4 R/B 2.0 22:20:18 33° NNE 22:20:18 33° NNE 22:21:51 10° N
STARLINK-1219 3.9 22:17:11 10° WNW 22:21:19 66° NNE 22:24:52 14° E
ATLAS 5 CENTAUR R/B 1.3 22:21:46 41° SSW 22:22:41 61° SE 22:24:57 10° NE
Cosmos 1758 4.2 22:20:02 10° NNW 22:23:52 42° W 22:25:25 29° SW
STARLINK-52 4.1 22:26:28 31° E 22:26:28 31° E 22:28:27 10° ENE
Terra 3.8 22:23:15 12° SW 22:26:13 20° W 22:29:39 10° NW
STARLINK-1211 3.9 22:22:10 10° WNW 22:26:20 69° NNE 22:29:40 15° ESE
SL-4 R/B 2.3 22:22:14 10° WSW 22:27:03 76° SSE 22:31:53 10° ENE
Cosmos 2228 3.7 22:22:59 10° N 22:27:04 43° ENE 22:28:36 30° SE
Cosmos 1726 Rocket 4.5 22:23:46 10° N 22:27:49 37° ENE 22:29:31 27° ESE
Meteor 2-15 4.5 22:21:43 10° N 22:27:54 76° E 22:31:06 30° SSE
STARLINK-1234 3.6 22:27:34 10° WNW 22:30:16 41° WSW 22:30:16 41° WSW
STARLINK-1245 3.8 22:27:08 10° WNW 22:31:18 72° NNE 22:34:26 17° ESE
In-Cosmos 22 4.0 22:30:05 33° S 22:32:30 77° E 22:37:48 10° NNE
STARLINK-1233 3.7 22:32:06 10° WNW 22:36:16 75° NNE 22:39:12 19° ESE
STARLINK-1209 4.0 22:33:46 10° WNW 22:36:13 34° WSW 22:36:13 34° WSW
Cosmos 2266 Rocket 3.9 22:33:43 30° S 22:36:57 84° E 22:43:02 10° N
STARLINK-1204 3.7 22:37:06 10° WNW 22:41:15 79° NNE 22:43:59 21° ESE
SJ 16-02 3.7 22:40:12 10° N 22:43:13 18° NE 22:46:14 10° E
STARLINK-1238 3.6 22:42:06 10° WNW 22:46:16 83° NNE 22:48:47 23° ESE
Meteor 2-15 Rocket 4.4 22:41:38 10° N 22:47:49 85° ENE 22:50:55 32° SSE
Cosmos 1536 Rocket 4.4 22:45:44 25° SW 22:47:50 44° WNW 22:52:03 10° N
Cosmos 1674 2.6 22:48:20 52° SSE 22:49:04 70° E 22:52:51 10° NNE
Helios 1B rocket 4.2 22:46:18 10° NE 22:49:16 19° E 22:50:09 18° ESE
STARLINK-1201 3.5 22:47:04 10° WNW 22:51:14 87° NNE 22:53:33 25° ESE
Cosmos 1271 Rocket 4.4 22:49:29 17° WSW 22:51:39 27° WNW 22:55:05 10° N
STARLINK-60 3.5 22:52:33 10° W 22:55:42 58° NNW 22:58:52 10° ENE
STARLINK-1206 3.5 22:52:04 10° WNW 22:56:14 89° SSW 22:58:21 28° ESE
COSMOS 2455 2.8 22:52:50 24° SSW 22:56:41 89° WNW 23:02:46 10° NE
Cosmos 2219 4.0 22:52:32 10° NNW 22:58:01 46° NE 23:02:18 16° ESE
USA 215 3.2 22:52:57 17° SE 22:58:14 79° SW 23:04:50 10° WNW
STARLINK-1216 4.5 22:54:15 10° WNW 22:58:18 51° N 23:02:21 10° E
STARLINK-1203 4.5 22:54:19 10° WNW 22:58:27 51° N 23:02:33 10° E
STARLINK-1205 3.5 22:57:02 10° WNW 23:01:12 84° SSW 23:03:07 31° ESE
Cosmos 1707 4.5 22:59:44 18° WSW 23:01:40 26° WNW 23:05:00 10° NNW
Cosmos 2297 Rocket 3.2 22:56:53 10° NNW 23:02:16 42° NE 23:07:00 13° ESE
Helios 1A 2.9 23:01:35 44° SSE 23:02:53 86° ENE 23:07:06 10° NNW
STARLINK-1237 4.4 22:59:14 10° WNW 23:03:18 52° N 23:07:22 10° E
Lacrosse 4 Rocket 4.0 23:02:32 10° N 23:05:45 19° NE 23:08:53 10° E
STARLINK-1218 3.5 23:02:02 10° WNW 23:06:11 80° SSW 23:07:55 34° SE
Cosmos 1726 3.5 23:03:18 10° NNW 23:06:31 28° W 23:07:20 26° WSW
STARLINK-1368 4.2 23:08:27 34° ESE 23:08:27 34° ESE 23:11:16 10° ENE
Cosmos 1174 4.0 23:06:36 35° WSW 23:07:46 56° NW 23:11:35 10° NNE
STARLINK-1202 4.4 23:04:14 10° WNW 23:08:19 53° NNE 23:12:23 10° E
ALOS 2 3.1 23:07:47 36° SW 23:09:05 48° W 23:13:21 10° NNW
Timation 2 Rocket 3.9 23:03:24 10° NNW 23:09:45 82° WSW 23:12:54 31° SSE
Cosmos 2058 Rocket 3.2 23:05:57 10° N 23:10:23 66° ENE 23:11:58 38° SSE
COSMOS 2487 3.8 23:07:31 10° NW 23:10:27 26° WSW 23:10:32 26° WSW
STARLINK-1254 3.5 23:07:00 10° WNW 23:11:09 75° SSW 23:12:41 37° SE
STARLINK-1369 4.1 23:11:47 37° ESE 23:11:47 37° ESE 23:14:46 10° ENE
CENTAUR R/B 4.0 23:07:20 10° NW 23:14:26 33° WSW 23:18:17 24° SSW
STARLINK-1372 3.9 23:15:08 40° ESE 23:15:08 40° ESE 23:18:16 10° ENE
STARLINK-1231 3.5 23:11:58 10° WNW 23:16:07 71° SSW 23:17:27 41° SE
Meteor 2-5 Rocket 3.7 23:14:12 35° S 23:16:41 81° E 23:22:20 10° NNE
ATLAS 3B R/B 3.0 23:11:29 10° NW 23:18:01 51° WSW 23:21:09 30° S
STARLINK-1378 3.8 23:18:28 44° SE 23:18:28 44° SE 23:21:47 10° ENE
STARLINK-1246 4.3 23:14:13 10° WNW 23:18:19 56° NNE 23:22:24 10° E
SL-14 R/B 3.5 23:19:11 46° SE 23:19:58 56° E 23:23:45 10° NNE
Cosmos 1606 Rocket 3.9 23:16:09 10° NNW 23:20:23 52° W 23:21:36 38° SW
SeaSat 1 3.5 23:15:44 10° NNE 23:20:23 42° NW 23:24:20 14° WSW
FALCON 9 DEB 3.0 23:20:07 59° WSW 23:20:42 86° SSE 23:24:09 10° ENE
STARLINK-1232 3.5 23:16:58 10° WNW 23:21:06 66° SSW 23:22:15 44° SSE
STARLINK-1379 3.7 23:21:51 47° SE 23:21:51 47° SE 23:25:19 10° ENE
STARLINK-1329 3.6 23:23:14 48° SE 23:23:14 48° SE 23:26:47 10° ENE
STARLINK-1224 4.2 23:19:12 10° WNW 23:23:18 58° NNE 23:27:24 10° E
Meteor 2-21 4.4 23:20:59 32° S 23:24:01 81° E 23:30:15 10° NNE
STARLINK-29 3.4 23:24:02 27° W 23:25:36 62° NNW 23:28:46 10° ENE
STARLINK-1208 3.5 23:21:57 10° WNW 23:26:03 62° SSW 23:27:00 46° SSE
SL-16 R/B 4.3 23:21:31 10° ESE 23:26:25 26° NE 23:31:21 10° N
STARLINK-1362 3.5 23:26:40 51° SSE 23:26:40 51° SSE 23:30:22 10° ENE
ATLAS CENTAUR R/B 1.7 23:26:08 10° NW 23:28:18 53° NE 23:32:21 10° ESE
STARLINK-1225 4.1 23:24:12 10° WNW 23:28:19 60° NNE 23:32:25 10° E
STARLINK-1373 3.4 23:30:05 54° SSE 23:30:13 54° SSE 23:33:59 10° ENE
NOSS 3-4 (A) 4.2 23:24:45 10° WSW 23:30:37 52° NW 23:36:58 10° NE
NOSS 3-4 (C) 4.2 23:24:50 10° WSW 23:30:42 52° NW 23:37:04 10° NE
STARLINK-1271 3.6 23:26:58 10° WNW 23:31:03 58° SSW 23:31:49 48° SSE
RESURS DK-1 2.4 23:29:48 39° SW 23:31:14 74° WNW 23:35:24 10° NNE
STARLINK-1365 3.4 23:31:12 55° SSE 23:31:28 57° SSE 23:35:14 10° ENE
STARLINK-1230 4.1 23:29:10 10° WNW 23:33:17 63° NNE 23:37:24 10° E
STARLINK-1390 3.4 23:33:34 55° SSE 23:33:50 57° SSE 23:37:36 10° ENE
Cosmos 1697 Rocket 4.3 23:32:47 17° SE 23:35:04 21° E 23:39:15 10° NE
Cosmos 2084 3.4 23:33:37 37° SW 23:35:20 88° SE 23:39:51 10° NE
STARLINK-1154 3.7 23:31:57 10° WNW 23:36:00 54° SSW 23:36:35 49° S
Cosmos 1626 2.0 23:36:00 56° SSW 23:36:45 88° W 23:40:30 10° N
BREEZE-M R/B 3.6 23:31:44 17° SW 23:36:47 51° SSE 23:40:25 10° E
STARLINK-1243 4.0 23:34:10 10° WNW 23:38:19 65° NNE 23:42:25 10° E
Okean 1-7 Rocket 3.6 23:37:39 41° SSW 23:39:12 79° W 23:43:46 10° N
ATLAS CENTAUR R/B 2.8 23:35:43 12° WSW 23:39:17 35° NW 23:43:03 10° NNE
Cosmos 2227 Rocket 2.5 23:33:38 10° NNW 23:39:19 65° ENE 23:43:29 18° SE
Cosmos 2369 Rocket 4.5 23:35:13 10° W 23:39:23 21° NW 23:43:34 10° N
STARLINK-1197 3.7 23:36:55 10° WNW 23:40:57 50° SW 23:41:21 48° SSW
CZ-4 R/B 3.8 23:37:17 10° NNE 23:42:04 70° ESE 23:43:50 38° S
STARLINK-1236 3.9 23:39:08 10° WNW 23:43:17 68° NNE 23:47:25 10° ESE
STARLINK-1198 3.8 23:41:55 10° WNW 23:45:54 47° SW 23:46:07 46° SSW
Cosmos 1602 Rocket 4.2 23:47:23 31° SE 23:48:55 44° E 23:53:03 10° NNE
Landsat 4 4.3 23:46:19 10° N 23:49:54 47° WNW 23:51:00 35° WSW
STARLINK-1199 3.9 23:46:56 10° WNW 23:50:53 44° SW 23:50:55 44° SW
STARLINK-1269 3.8 23:49:06 10° WNW 23:53:16 74° NNE 23:57:24 10° ESE
Meteor 2-21 Rocket 4.5 23:50:06 31° SSW 23:53:16 81° W 23:59:31 10° N
STARLINK-1210 4.0 23:51:55 10° WNW 23:55:41 40° SW 23:55:41 40° SW
